DW6451 Weather Reports


Display with metric or nautical units.
time (UTC)temp
F
wind
direction
speed
MPH
gust
MPH
rain 1hr
in
rain 24hr
in
rain mn
in
humidity
%
barometer
mb
20260905201558 72 81 0.0 5.0 0.00 0.04 0.04 83 1017.5
20260905200105 72 340 1.0 4.0 0.00 0.04 0.04 82 1017.5
20260905194558 72 309 1.0 4.0 0.00 0.04 0.04 83 1017.5
20260905193056 72 313 0.0 4.0 0.00 0.04 0.04 83 1017.4
20260905191554 72 39 1.0 4.0 0.00 0.04 0.04 85 1017.4
20260905190053 71 42 0.0 4.0 0.00 0.04 0.04 86 1017.2
20260905184550 71 41 0.0 4.0 0.00 0.04 0.04 89 1017.4
20260905183046 70 37 0.0 3.0 0.00 0.04 0.04 91 1017.3
20260905181545 69 37 0.0 3.0 0.00 0.04 0.04 92 1017.5
20260905180045 69 37 0.0 2.0 0.00 0.04 0.04 93 1017.6
20260905174547 69 37 0.0 2.0 0.00 0.04 0.04 94 1017.6
20260905173045 69 37 0.0 1.0 0.00 0.04 0.04 93 1017.6
20260905171556 69 37 0.0 3.0 0.00 0.04 0.04 93 1017.9
20260905170046 69 40 0.0 2.0 0.00 0.04 0.04 93 1017.8
20260905164547 69 40 0.0 3.0 0.00 0.04 0.04 93 1017.9
20260905163050 69 40 0.0 2.0 0.00 0.04 0.04 93 1017.9
20260905161541 69 40 0.0 3.0 0.00 0.04 0.04 94 1017.7
20260905160039 70 40 0.0 2.0 0.00 0.04 0.04 96 1017.5
20260905154545 69 40 0.0 2.0 0.00 0.04 0.04 99 1017.4
20260905153034 68 40 0.0 3.0 0.00 0.04 0.04 100 1017.4
20260905151533 68 40 0.0 1.0 0.00 0.04 0.04 100 1017.5
20260905150040 67 40 0.0 1.0 0.00 0.04 0.04 100 1017.5
20260905144535 67 40 0.0 2.0 0.00 0.04 0.04 100 1017.4
20260905143028 67 40 0.0 2.0 0.00 0.04 0.04 100 1017.3
20260905141527 67 40 0.0 1.0 0.00 0.04 0.04 100 1017.0
20260905140028 67 40 0.0 2.0 0.00 0.04 0.04 100 1016.8
20260905134526 67 40 0.0 0.0 0.00 0.04 0.04 100 1017.0
20260905133024 66 40 0.0 0.0 0.00 0.04 0.04 100 1017.1
20260905131533 66 40 0.0 1.0 0.00 0.04 0.04 100 1017.1
20260905130021 66 40 0.0 0.0 0.00 0.04 0.04 100 1017.1
20260905124519 66 40 0.0 0.0 0.00 0.04 0.04 100 1016.6
20260905123019 66 40 0.0 0.0 0.00 0.04 0.04 100 1016.5
20260905121514 66 40 0.0 1.0 0.00 0.04 0.04 100 1016.1
20260905120021 65 40 0.0 0.0 0.00 0.04 0.04 100 1016.0
20260905114516 65 40 0.0 0.0 0.00 0.04 0.04 100 1015.8
20260905113011 65 40 0.0 0.0 0.01 0.04 0.04 100 1015.4
20260905111510 65 40 0.0 3.0 0.01 0.04 0.04 100 1015.4
20260905110010 65 40 0.0 2.0 0.01 0.04 0.04 100 1015.2
20260905104517 65 40 0.0 1.0 0.01 0.04 0.04 100 1015.3
20260905103012 65 40 0.0 3.0 0.00 0.03 0.03 100 1015.5
20260905101509 65 40 0.0 3.0 0.00 0.03 0.03 100 1015.6
20260905100008 65 40 0.0 4.0 0.00 0.03 0.03 100 1015.6
20260905094508 65 40 0.0 3.0 0.01 0.50 0.03 100 1015.5
20260905093008 65 41 0.0 3.0 0.02 0.50 0.03 100 1015.5
20260905091507 65 35 0.0 3.0 0.02 0.50 0.03 100 1015.8
20260905090009 65 35 0.0 3.0 0.02 0.50 0.03 100 1015.7
20260905084505 65 35 0.0 1.0 0.01 0.54 0.02 100 1015.7
20260905083006 66 35 0.0 2.0 0.00 0.53 0.01 100 1015.7
20260905081502 66 35 0.0 1.0 0.00 0.53 0.01 100 1015.6
20260905080003 66 35 0.0 1.0 0.00 0.53 0.01 100 1015.6
20260905074502 66 35 0.0 2.0 0.01 0.53 0.01 100 1015.6
20260905073001 66 35 0.0 2.0 0.01 0.53 0.01 100 1015.4
20260905071602 65 35 0.0 4.0 0.01 0.53 0.01 100 1015.3
20260905070100 65 35 0.0 3.0 0.01 0.53 0.01 99 1015.2
20260905064559 65 35 0.0 4.0 0.00 0.52 0.00 99 1015.1
20260905063057 65 36 0.0 3.0 0.00 0.52 0.00 99 1015.2
20260905061605 65 36 0.0 3.0 0.00 0.52 0.00 99 1015.3
20260905060106 65 36 0.0 4.0 0.00 0.52 0.00 99 1015.4
20260905054604 65 10 0.0 2.0 0.00 0.53 0.00 99 1015.3
20260905053054 65 9 0.0 3.0 0.00 0.53 0.00 99 1015.1
20260905051607 65 51 0.0 2.0 0.00 0.53 0.00 99 1015.2
20260905050052 65 26 0.0 2.0 0.00 0.53 0.00 98 1015.2
20260905044552 65 26 0.0 2.0 0.00 0.54 0.53 98 1015.1
20260905043051 65 26 0.0 3.0 0.00 0.54 0.53 98 1015.1
20260905041550 65 26 0.0 1.0 0.00 0.54 0.53 98 1015.1
20260905040103 65 26 0.0 1.0 0.00 0.54 0.53 98 1015.3
20260905034550 65 26 0.0 2.0 0.00 0.56 0.53 98 1015.1
20260905033058 65 26 0.0 1.0 0.00 0.56 0.53 97 1015.2
20260905031550 65 26 0.0 2.0 0.00 0.56 0.53 97 1015.3
20260905030052 66 26 0.0 4.0 0.00 0.56 0.53 97 1015.1
20260905024602 66 85 0.0 2.0 0.00 0.56 0.53 97 1015.2
20260905023051 66 85 0.0 0.0 0.00 0.56 0.53 97 1015.2
20260905021545 66 85 0.0 1.0 0.00 0.56 0.53 97 1014.9
20260905020045 66 85 0.0 1.0 0.00 0.56 0.53 97 1015.0
20260905014544 66 85 0.0 1.0 0.00 0.56 0.53 97 1014.9
20260905013104 66 85 0.0 3.0 0.00 0.56 0.53 96 1014.8
20260905011541 66 86 1.0 3.0 0.00 0.56 0.53 96 1014.6
20260905010040 66 87 0.0 3.0 0.00 0.56 0.53 96 1014.5
20260905004539 66 75 0.0 3.0 0.00 0.56 0.53 95 1014.4
20260905003037 66 77 0.0 4.0 0.00 0.56 0.53 95 1014.2
20260905001535 66 17 0.0 3.0 0.00 0.56 0.53 95 1014.2
20260905000035 66 86 0.0 3.0 0.00 0.56 0.53 95 1014.1
20260904234540 67 86 1.0 5.0 0.00 0.56 0.53 94 1014.1
20260904233033 67 72 0.0 5.0 0.00 0.56 0.53 94 1014.0
20260904231532 67 300 0.0 4.0 0.00 0.56 0.53 93 1013.9
20260904230045 68 58 0.0 8.0 0.00 0.56 0.53 93 1013.9
20260904224533 68 10 2.0 6.0 0.00 0.56 0.53 93 1013.8
20260904223031 68 15 0.0 3.0 0.00 0.56 0.53 93 1013.7
20260904221529 68 15 1.0 4.0 0.00 0.56 0.53 92 1013.6
20260904220034 68 113 0.0 3.0 0.00 0.56 0.53 92 1013.7
20260904214528 68 360 1.0 5.0 0.00 0.56 0.53 92 1013.7
20260904213033 68 355 1.0 5.0 0.00 0.56 0.53 91 1013.6
20260904211525 68 74 0.0 5.0 0.00 0.56 0.53 92 1013.5
20260904210025 68 78 1.0 5.0 0.00 0.56 0.53 92 1013.4
20260904204524 68 30 0.0 5.0 0.00 0.56 0.53 92 1013.3
20260904203029 68 72 2.0 7.0 0.00 0.56 0.53 92 1013.3